DELTA 1 DEB, 19291

Orbit data source: Space-Track

DELTA 1 DEB, 19291 is space debris in SSO originally from a launch on Tue, 06 Nov 1973 UTC launched from the Air Force Western Test Range (AFWTR). Debris objects in space refer to the collection of defunct objects orbiting the Earth. Examples of debris include non-operational satellites, rocket bodies, and fragments generated from explosions, collisions, or faulty payload assembly.

Loading next visibility...
Identifier
19291, 1973-086HD
Orbit
SSO
Country
Flag of USUS
Related business
Manufacturer
Unknown
Mission
Spacecraft
Bus & Motor
Unknown
Mass
Unknown
Launch date (UTC)
1973-11-06 (53 years ago)
Launch vehicle
Unknown
Launch site
Air Force Western Test Range (AFWTR)
Object type
Payload
Rocket body
Debris
Shape & HBR
Unknown shape, 0.1 m
Radar Cross Section
Medium (>0.1 m² and <1 m²)

Expand to show TLE details & history
Last TLE update: 3 days ago

TLE from 3 days ago
0 DELTA 1 DEB
1 19291U 73086HD  26206.73203623  .00000289  00000-0  21443-2 0  9993
2 19291 101.8335 184.9695 0036702  83.2075  91.4509 12.51662722738303
Epoch: 2026-07-25T17:34Z
TLE epoch observation values (Epoch: 2026-07-25T17:34:07.930Z)
Latitude
4.73838°
Longitude
158.98658°
Altitude
1,460.465 km
Speed
7.132 km/s
True Right ascension
00h 23m 50s
True Declination
4° 42' 46"
Sunlit
Object was in daylight at epoch
Visualization orbit readout
Latitude
Unknown
Longitude
Unknown
Altitude
Unknown
Speed
Unknown
Apparent Right ascension
Unknown
Apparent Declination
Unknown
Sunlit
N/A
Visualization observer readout
Local Sidereal Time
09:34:01
Azimuth
Unknown
Elevation
Unknown
Doppler factor
Unknown
Orbital elements
Apogee altitude
1,483.847 km
Perigee altitude
1,426.348 km
Semi-major axis
7,833.234 km
Eccentricity
0.00367
Inclination
101.8335°
RAAN
184.9695°
Arg. of periapsis
83.2075°
True anomaly
91.87129°
Mean anomaly
91.4509°
Eccentric anomaly
91.6611°
Mean motion
3.13063 °/min
Orbital period
114.99 mins
BSTAR
0.0021443
Loading maneuver chart data...
Computing Atmospheric mass density...
Loading historical data...
Loading historical data...
Loading historical data...
Loading historical data...
Loading historical data...
Loading historical data...
Loading historical data...

Documentation

Showing up to 5 results
|